Location: ??????
(31.2056°N, 45.3906°E)
Time: 13:59:16
(UTC+00:00)

Resurs 1-3 - Pass Details

Date: 09 April 2020
Orbit: 630 x 632 km, 97.9° (Epoch: 04 June)

Event Time Altitude Azimuth Distance (km) Brightness Sun altitude
Exits shadow 17:04:08 44° 60° (ENE) 878 4.0 -21.4°
Drops below altitude 10° 17:07:58 10° 2° (N) 2,015 6.4 -22.2°
Sets 17:10:14 0° 356° (N) 2,927 7.4 -22.6°
